FENGYUN 1C DEB

Satellite information

Favourite Embed

Satellite Type and Status

DEBRISIN ORBIT

Key statistics

Satellite FENGYUN 1C DEB at a glance.

Uptime

9658

Days in orbit

Revolutions

≈ 14.0

Per day

Orbit

SSO

Sun Synchronous Orbit

Inclination

99.0

Latest

Satellite identification and parameters

Extended collection of information and parameters for FENGYUN 1C DEB.

Object identification

Identified? True

Debris? True

Object name: FENGYUN 1C DEB

International designator: 1999-025EMG

Object number (NORAD): 37715

Object ID (CCSDS): 37715

Country: PEOPLES REPUBLIC OF CHINA (PRC)

Current information (Y/N): Y

RCS size: SMALL

Orbital parameters

Period: 103.205 minutes

Inclination: 98.9602 deg

SMA: 7288.327 km

Apoapsis: 992.609 km

Periapsis: 827.775 km

RAAN: 292.8566 deg

Eccentricy: 0.0113081

Argument of periapsis: 286.5401 deg

Mean anomaly: 89.2998 deg

Mean motion: 13.95278798 rev/day

Mean motion (dot): 0.00000892 rev/day2

B* drag term: 0.00065614 1/REarth

Two-line elements (TLE)

Creation date: Oct. 10, 2025, 3:46 p.m.

Reference frame: TEME

Reference center: EARTH

Epoch: Oct. 10, 2025, 7:11 a.m. UTC

TLE line 0: 0 FENGYUN 1C DEB

TLE line 1: 1 37715U 99025EMG 25283.29965708 .00000892 00000-0 65614-3 0 9998

TLE line 2: 2 37715 98.9602 292.8566 0113081 286.5401 89.2998 13.95278798569191

Live tracking on map

Real-time ground track for satellite FENGYUN 1C DEB.

In-orbit conjunctions

A list of the most updated potential collisions computed for object FENGYUN 1C DEB.

Target Orbit TCA Probability of collision Miss distance Type
COSMOS 970 DEB LEO 2025-05-06 21:28:17 0.0005099916 55.0 (m) DEBRIS

Associated space launch

Chinese polar orbiting meteorological satellite

FENGYUN 1C DEB was lifted into orbit during the mission ‘Long March 4B | Feng Yun 1C’, on board a Long March 4B space rocket.

The launch took place on May 10, 1999, 1:33 a.m. from Launch Complex 7.

For more information about the launch, click the button.

Launch to space Long March 4B | Feng Yun 1C
Long March 4B | Feng Yun 1C

Agency: N/A

Status: Launch Successful

Launch date: May 10, 1999, 1:33 a.m. UTC

Rocket: Long March 4B

Launch pad: Launch Complex 7

Location: Taiyuan Satellite Launch Center, People's Republic of China

...

Latest news about this satellite

There are no fresh news available about this satellite. Check back as we update our databases every day.


Newsletter sign-up

Weekly statistics, charts and insights to help you stay on top of the space industry.